Doha, Qatar

12:04 PM +03 on June 26, 2017 (GMT +0300)
Doha International

Weather History for OTBD - November, 2013

Change the Weather History Date:

Monday, November 25, 2013

  Actual Average Record
Temperature  
Mean Temperature 72 °F -  
Max Temperature 78 °F 77 °F 85 °F (2014)
Min Temperature 66 °F 60 °F 60 °F (2002)
Cooling Degree Days 7    
Growing Degree Days 22 (Base 50)    
Moisture  
Dew Point 55 °F    
Average Humidity 53    
Maximum Humidity 78    
Minimum Humidity 31    
Precipitation  
Precipitation 0.00 in 0.01 in - ()
Sea Level Pressure  
Sea Level Pressure 30.07 in    
Wind  
Wind Speed 5 mph ()    
Max Wind Speed 13 mph    
Max Gust Speed -    
Visibility 6.5 miles    
Events      
Averages and records for this station are not official NWS values.
T = Trace of Precipitation, MM = Missing Value Source: Averaged Metar Reports

Daily Weather History Graph

Daily Weather History Graph

Search for Another Location

Airport or City:

Trip Planner

Search our weather history database for the weather conditions in past years. The results will help you decide how hot, cold, wet, or windy it might be!

Date:

Astronomy

Nov. 25, 2013 Rise Set
Actual Time 5:57 AM +03 4:43 PM +03
Civil Twilight 5:33 AM +03 5:07 PM +03
Nautical Twilight 5:05 AM +03 5:36 PM +03
Astronomical Twilight 4:37 AM +03 6:03 PM +03
Moon 11:20 PM +03 (11/25) 11:24 AM +03 (11/25)
Length of Visible Light 11h 34m
Length of Day
10h 45m
Waning Gibbous, 54% of the Moon is Illuminated
Nov 25
Waning Gibbous
Nov 25
Last Quarter
Dec 3
New
Dec 9
First Quarter
Dec 17
Full

Hourly Weather History & Observations

Time (+03) Temp. Dew Point Humidity Pressure Visibility Wind Dir Wind Speed Gust Speed Precip Events Conditions
12:00 AM 70 °F 54 °F 46% 30.09 in 7 mi WNW 4.6 mph - -  
12:00 AM 69.8 °F 53.6 °F 56% 30.06 in - WNW 4.6 mph - N/A   Clear
12:30 AM 69.8 °F 51.8 °F 53% 30.06 in - WNW 5.8 mph - N/A   Clear
1:00 AM 69.8 °F 53.6 °F 56% 30.06 in - NW 5.8 mph - N/A   Clear
1:30 AM 69.8 °F 55.4 °F 60% 30.06 in - NW 4.6 mph - N/A   Clear
2:00 AM 69.8 °F 55.4 °F 60% 30.06 in - NW 5.8 mph - N/A   Clear
2:30 AM 69.8 °F 55.4 °F 60% 30.06 in - WNW 4.6 mph - N/A   Clear
3:00 AM 68 °F 56 °F 58% 30.08 in 7 mi WNW 3.5 mph - -  
3:00 AM 68.0 °F 57.2 °F 68% 30.06 in - WNW 3.5 mph - N/A   Clear
3:30 AM 68.0 °F 57.2 °F 68% 30.06 in - WNW 4.6 mph - N/A   Clear
4:00 AM 68.0 °F 57.2 °F 68% 30.06 in - WNW 3.5 mph - N/A   Clear
4:30 AM 68.0 °F 57.2 °F 68% 30.06 in - Variable 2.3 mph - N/A   Clear
5:00 AM 68.0 °F 57.2 °F 68% 30.06 in - Variable 2.3 mph - N/A   Clear
5:30 AM 68.0 °F 55.4 °F 64% 30.06 in - West 3.5 mph - N/A   Clear
6:00 AM 67 °F 57 °F 61% 30.10 in 5 mi 2.3 mph - -   Haze
6:00 AM 66.2 °F 57.2 °F 73% 30.09 in 5.0 mi Variable 2.3 mph - N/A   Unknown
6:30 AM 66.2 °F 59.0 °F 78% 30.09 in 5.0 mi WSW 3.5 mph - N/A   Unknown
7:00 AM 68.0 °F 57.2 °F 68% 30.09 in 4.3 mi WSW 3.5 mph - N/A   Unknown
8:00 AM 71.6 °F 55.4 °F 57% 30.12 in 5.0 mi WNW 4.6 mph - N/A   Unknown
9:00 AM 74 °F 54 °F 39% 30.14 in 7 mi WNW 8.1 mph - -   Scattered Clouds
9:00 AM 73.4 °F 53.6 °F 50% 30.12 in - WNW 8.1 mph - N/A   Clear
9:30 AM 75.2 °F 53.6 °F 47% 30.12 in - NW 8.1 mph - N/A   Clear
10:00 AM 75.2 °F 53.6 °F 47% 30.09 in 6.2 mi NW 10.4 mph - N/A   Partly Cloudy
11:00 AM 77.0 °F 53.6 °F 44% 30.09 in 6.2 mi NW 10.4 mph - N/A   Partly Cloudy
12:00 PM 78 °F 53 °F 31% 30.08 in 10 mi North 12.7 mph - -   Scattered Clouds
12:00 PM 77.0 °F 53.6 °F 44% 30.06 in 6.2 mi North 12.7 mph - N/A   Partly Cloudy
1:00 PM 78.8 °F 53.6 °F 42% 30.04 in 6.2 mi NNW 9.2 mph - N/A   Partly Cloudy
2:00 PM 78.8 °F 51.8 °F 39% 30.04 in - NNW 9.2 mph - N/A   Clear
2:30 PM 78.8 °F 51.8 °F 39% 30.04 in - NNW 10.4 mph - N/A   Clear
3:00 PM 78 °F 53 °F 31% 30.04 in 9 mi NW 8.1 mph - -   Clear
3:00 PM 78.8 °F 53.6 °F 42% 30.04 in - NW 8.1 mph - N/A   Clear
3:30 PM 77.0 °F 53.6 °F 44% 30.04 in 6.2 mi North 9.2 mph - N/A   Partly Cloudy
4:00 PM 77.0 °F 53.6 °F 44% 30.04 in - NW 8.1 mph - N/A   Clear
4:30 PM 75.2 °F 53.6 °F 47% 30.04 in 6.2 mi NNW 8.1 mph - N/A   Partly Cloudy
5:00 PM 75.2 °F 53.6 °F 47% 30.04 in - NNW 9.2 mph - N/A   Clear
5:30 PM 75.2 °F 55.4 °F 50% 30.06 in - NNW 8.1 mph - N/A   Clear
6:00 PM 75 °F 56 °F 42% 30.07 in 9 mi NW 8.1 mph - -  
6:00 PM 75.2 °F 57.2 °F 53% 30.06 in - NW 8.1 mph - N/A   Clear
6:30 PM 73.4 °F 57.2 °F 57% 30.06 in - NW 6.9 mph - N/A   Clear
7:00 PM 73.4 °F 57.2 °F 57% 30.06 in - WNW 8.1 mph - N/A   Clear
7:30 PM 73.4 °F 59.0 °F 61% 30.06 in - WNW 4.6 mph - N/A   Clear
8:00 PM 71.6 °F 57.2 °F 60% 30.06 in - WNW 4.6 mph - N/A   Clear